owner,sensor,date,latitude,longitude,vertical_datum,mass_concentration_of_oxygen_in_sea_water,qcFlag 
DISL,ioos:station:DISL:CATA:1,2016-01-01T00:00:00Z,30.3085,-88.1395,2.343,9.26,1111122 
DISL,ioos:station:DISL:CATA:1,2016-01-01T00:30:00Z,30.3085,-88.1395,2.321,9.24,1111122 
DISL,ioos:station:DISL:CATA:1,2016-01-01T01:00:00Z,30.3085,-88.1395,2.318,9.27,1111122 
DISL,ioos:station:DISL:CATA:1,2016-01-01T01:30:00Z,30.3085,-88.1395,2.28,9.19,1111122 
DISL,ioos:station:DISL:CATA:1,2016-01-01T02:00:00Z,30.3085,-88.1395,2.254,9.19,1111122 
DISL,ioos:station:DISL:CATA:1,2016-01-01T02:30:00Z,30.3085,-88.1395,2.239,9.07,1111122 
DISL,ioos:station:DISL:CATA:1,2016-01-01T03:00:00Z,30.3085,-88.1395,2.233,9.06,1111122 
DISL,ioos:station:DISL:CATA:1,2016-01-01T03:30:00Z,30.3085,-88.1395,2.245,9.04,1111122 
DISL,ioos:station:DISL:CATA:1,2016-01-01T04:00:00Z,30.3085,-88.1395,2.249,9.04,1111122 
DISL,ioos:station:DISL:CATA:1,2016-01-01T04:30:00Z,30.3085,-88.1395,2.292,9.14,1111122 
DISL,ioos:station:DISL:CATA:1,2016-01-01T05:00:00Z,30.3085,-88.1395,2.302,9.24,1111122 
DISL,ioos:station:DISL:CATA:1,2016-01-01T05:30:00Z,30.3085,-88.1395,2.285,9.2,1111122 
DISL,ioos:station:DISL:CATA:1,2016-01-01T06:00:00Z,30.3085,-88.1395,2.284,9.13,1111122 
DISL,ioos:station:DISL:CATA:1,2016-01-01T06:30:00Z,30.3085,-88.1395,2.291,9.1,1111122 
DISL,ioos:station:DISL:CATA:1,2016-01-01T07:00:00Z,30.3085,-88.1395,2.268,9.09,1111122 
DISL,ioos:station:DISL:CATA:1,2016-01-01T07:30:00Z,30.3085,-88.1395,2.264,9.08,1111122 
DISL,ioos:station:DISL:CATA:1,2016-01-01T08:00:00Z,30.3085,-88.1395,2.26,9.09,1111122 
DISL,ioos:station:DISL:CATA:1,2016-01-01T08:30:00Z,30.3085,-88.1395,2.241,9.1,1111122 
DISL,ioos:station:DISL:CATA:1,2016-01-01T09:00:00Z,30.3085,-88.1395,2.223,9.08,1111122 
DISL,ioos:station:DISL:CATA:1,2016-01-01T09:30:00Z,30.3085,-88.1395,2.204,9.06,1111122 
DISL,ioos:station:DISL:CATA:1,2016-01-01T10:00:00Z,30.3085,-88.1395,2.198,9.08,1111122 
DISL,ioos:station:DISL:CATA:1,2016-01-01T10:30:00Z,30.3085,-88.1395,2.19,9.1,1111122 
DISL,ioos:station:DISL:CATA:1,2016-01-01T11:00:00Z,30.3085,-88.1395,2.174,9.08,1111122 
DISL,ioos:station:DISL:CATA:1,2016-01-01T11:30:00Z,30.3085,-88.1395,2.171,9.12,1111122 
DISL,ioos:station:DISL:CATA:1,2016-01-01T12:00:00Z,30.3085,-88.1395,2.15,9.17,1111122 
DISL,ioos:station:DISL:CATA:1,2016-01-01T12:30:00Z,30.3085,-88.1395,2.126,9.19,1111122 
DISL,ioos:station:DISL:CATA:1,2016-01-01T13:00:00Z,30.3085,-88.1395,2.101,9.19,1111122 
DISL,ioos:station:DISL:CATA:1,2016-01-01T13:30:00Z,30.3085,-88.1395,2.053,9.23,1111122 
DISL,ioos:station:DISL:CATA:1,2016-01-01T14:00:00Z,30.3085,-88.1395,2.022,9.27,1111122 
DISL,ioos:station:DISL:CATA:1,2016-01-01T14:30:00Z,30.3085,-88.1395,2.026,9.29,1111122 
DISL,ioos:station:DISL:CATA:1,2016-01-01T15:00:00Z,30.3085,-88.1395,2.013,9.34,1111122 
DISL,ioos:station:DISL:CATA:1,2016-01-01T15:30:00Z,30.3085,-88.1395,1.934,9.34,1111122 
DISL,ioos:station:DISL:CATA:1,2016-01-01T16:00:00Z,30.3085,-88.1395,1.926,9.36,1111122 
DISL,ioos:station:DISL:CATA:1,2016-01-01T16:30:00Z,30.3085,-88.1395,1.948,9.36,1111122 
DISL,ioos:station:DISL:CATA:1,2016-01-01T17:00:00Z,30.3085,-88.1395,2.035,9.38,1111122 
DISL,ioos:station:DISL:CATA:1,2016-01-01T17:30:00Z,30.3085,-88.1395,2.115,9.39,1111122 
DISL,ioos:station:DISL:CATA:1,2016-01-01T18:00:00Z,30.3085,-88.1395,2.198,9.37,1111122 
DISL,ioos:station:DISL:CATA:1,2016-01-01T18:30:00Z,30.3085,-88.1395,2.22,9.44,1111122 
DISL,ioos:station:DISL:CATA:1,2016-01-01T19:00:00Z,30.3085,-88.1395,2.229,9.47,1111122 
DISL,ioos:station:DISL:CATA:1,2016-01-01T19:30:00Z,30.3085,-88.1395,2.237,9.47,1111122 
DISL,ioos:station:DISL:CATA:1,2016-01-01T20:00:00Z,30.3085,-88.1395,2.241,9.48,1111122 
DISL,ioos:station:DISL:CATA:1,2016-01-01T20:30:00Z,30.3085,-88.1395,2.221,9.48,1111122 
DISL,ioos:station:DISL:CATA:1,2016-01-01T21:00:00Z,30.3085,-88.1395,2.177,9.47,1111122 
DISL,ioos:station:DISL:CATA:1,2016-01-01T21:30:00Z,30.3085,-88.1395,2.152,9.89,1111122 
DISL,ioos:station:DISL:CATA:1,2016-01-01T22:00:00Z,30.3085,-88.1395,2.153,9.77,1111122 
DISL,ioos:station:DISL:CATA:1,2016-01-01T22:30:00Z,30.3085,-88.1395,2.197,9.61,1111122 
DISL,ioos:station:DISL:CATA:1,2016-01-01T23:00:00Z,30.3085,-88.1395,2.219,9.5,1111122 
DISL,ioos:station:DISL:CATA:1,2016-01-01T23:30:00Z,30.3085,-88.1395,2.258,9.47,1111122 
DISL,ioos:station:DISL:CATA:1,2016-01-02T00:00:00Z,30.3085,-88.1395,2.306,9.44,1111122 
DISL,ioos:station:DISL:CATA:1,2016-01-02T00:30:00Z,30.3085,-88.1395,2.288,9.45,1111122 
DISL,ioos:station:DISL:CATA:1,2016-01-02T01:00:00Z,30.3085,-88.1395,2.284,9.54,1111122 
DISL,ioos:station:DISL:CATA:1,2016-01-02T01:30:00Z,30.3085,-88.1395,2.261,9.66,1111122 
DISL,ioos:station:DISL:CATA:1,2016-01-02T02:00:00Z,30.3085,-88.1395,2.224,9.49,1111122 
DISL,ioos:station:DISL:CATA:1,2016-01-02T02:30:00Z,30.3085,-88.1395,2.185,9.62,1111122 
DISL,ioos:station:DISL:CATA:1,2016-01-02T03:00:00Z,30.3085,-88.1395,2.152,9.56,1111122 
DISL,ioos:station:DISL:CATA:1,2016-01-02T03:30:00Z,30.3085,-88.1395,2.136,9.47,1111122 
DISL,ioos:station:DISL:CATA:1,2016-01-02T04:00:00Z,30.3085,-88.1395,2.12,9.44,1111122 
DISL,ioos:station:DISL:CATA:1,2016-01-02T04:30:00Z,30.3085,-88.1395,2.113,9.45,1111122 
DISL,ioos:station:DISL:CATA:1,2016-01-02T05:00:00Z,30.3085,-88.1395,2.109,9.44,1111122 
DISL,ioos:station:DISL:CATA:1,2016-01-02T05:30:00Z,30.3085,-88.1395,2.117,9.42,1111122 
DISL,ioos:station:DISL:CATA:1,2016-01-02T06:00:00Z,30.3085,-88.1395,2.137,9.4,1111122 
DISL,ioos:station:DISL:CATA:1,2016-01-02T06:30:00Z,30.3085,-88.1395,2.166,9.4,1111122 
DISL,ioos:station:DISL:CATA:1,2016-01-02T07:00:00Z,30.3085,-88.1395,2.193,9.38,1111122 
DISL,ioos:station:DISL:CATA:1,2016-01-02T07:30:00Z,30.3085,-88.1395,2.212,9.27,1111122 
DISL,ioos:station:DISL:CATA:1,2016-01-02T08:00:00Z,30.3085,-88.1395,2.196,9.3,1111122 
DISL,ioos:station:DISL:CATA:1,2016-01-02T08:30:00Z,30.3085,-88.1395,2.178,9.26,1111122 
DISL,ioos:station:DISL:CATA:1,2016-01-02T09:00:00Z,30.3085,-88.1395,2.169,9.23,1111122 
DISL,ioos:station:DISL:CATA:1,2016-01-02T09:30:00Z,30.3085,-88.1395,2.109,9.41,1111122 
DISL,ioos:station:DISL:CATA:1,2016-01-02T10:00:00Z,30.3085,-88.1395,2.107,9.47,1111122 
DISL,ioos:station:DISL:CATA:1,2016-01-02T10:30:00Z,30.3085,-88.1395,2.073,9.46,1111122 
DISL,ioos:station:DISL:CATA:1,2016-01-02T11:00:00Z,30.3085,-88.1395,2.054,9.48,1111122 
DISL,ioos:station:DISL:CATA:1,2016-01-02T11:30:00Z,30.3085,-88.1395,2.033,9.48,1111122 
DISL,ioos:station:DISL:CATA:1,2016-01-02T12:00:00Z,30.3085,-88.1395,2.019,9.49,1111122 
DISL,ioos:station:DISL:CATA:1,2016-01-02T12:30:00Z,30.3085,-88.1395,2.02,9.53,1111122 
DISL,ioos:station:DISL:CATA:1,2016-01-02T13:00:00Z,30.3085,-88.1395,2.028,9.54,1111122 
DISL,ioos:station:DISL:CATA:1,2016-01-02T13:30:00Z,30.3085,-88.1395,2.026,9.55,1111122 
DISL,ioos:station:DISL:CATA:1,2016-01-02T14:00:00Z,30.3085,-88.1395,2.032,9.56,1111122 
DISL,ioos:station:DISL:CATA:1,2016-01-02T14:30:00Z,30.3085,-88.1395,2.049,9.58,1111122 
DISL,ioos:station:DISL:CATA:1,2016-01-02T15:00:00Z,30.3085,-88.1395,2.062,9.59,1111122 
DISL,ioos:station:DISL:CATA:1,2016-01-02T15:30:00Z,30.3085,-88.1395,2.061,9.65,1111122 
DISL,ioos:station:DISL:CATA:1,2016-01-02T16:00:00Z,30.3085,-88.1395,2.061,9.68,1111122 
DISL,ioos:station:DISL:CATA:1,2016-01-02T16:30:00Z,30.3085,-88.1395,2.058,9.73,1111122 
DISL,ioos:station:DISL:CATA:1,2016-01-02T17:00:00Z,30.3085,-88.1395,2.046,9.74,1111122 
DISL,ioos:station:DISL:CATA:1,2016-01-02T17:30:00Z,30.3085,-88.1395,2.072,9.77,1111122 
DISL,ioos:station:DISL:CATA:1,2016-01-02T18:00:00Z,30.3085,-88.1395,2.108,9.73,1111122 
DISL,ioos:station:DISL:CATA:1,2016-01-02T18:30:00Z,30.3085,-88.1395,2.112,9.75,1111122 
DISL,ioos:station:DISL:CATA:1,2016-01-02T19:00:00Z,30.3085,-88.1395,2.132,9.71,1111122 
DISL,ioos:station:DISL:CATA:1,2016-01-02T19:30:00Z,30.3085,-88.1395,2.169,9.71,1111122 
DISL,ioos:station:DISL:CATA:1,2016-01-02T20:00:00Z,30.3085,-88.1395,2.181,9.79,1111122 
DISL,ioos:station:DISL:CATA:1,2016-01-02T20:30:00Z,30.3085,-88.1395,2.21,9.81,1111122 
DISL,ioos:station:DISL:CATA:1,2016-01-02T21:00:00Z,30.3085,-88.1395,2.222,9.8,1111122 
DISL,ioos:station:DISL:CATA:1,2016-01-02T21:30:00Z,30.3085,-88.1395,2.228,9.77,1111122 
DISL,ioos:station:DISL:CATA:1,2016-01-02T22:00:00Z,30.3085,-88.1395,2.238,9.79,1111122 
DISL,ioos:station:DISL:CATA:1,2016-01-02T22:30:00Z,30.3085,-88.1395,2.257,9.91,1111122 
DISL,ioos:station:DISL:CATA:1,2016-01-02T23:00:00Z,30.3085,-88.1395,2.265,9.77,1111122 
DISL,ioos:station:DISL:CATA:1,2016-01-02T23:30:00Z,30.3085,-88.1395,2.271,9.87,1111122 
DISL,ioos:station:DISL:CATA:1,2016-01-03T00:00:00Z,30.3085,-88.1395,2.272,9.89,1111122 
DISL,ioos:station:DISL:CATA:1,2016-01-03T00:30:00Z,30.3085,-88.1395,2.302,9.89,1111122 
DISL,ioos:station:DISL:CATA:1,2016-01-03T01:00:00Z,30.3085,-88.1395,2.313,9.87,1111122 
DISL,ioos:station:DISL:CATA:1,2016-01-03T01:30:00Z,30.3085,-88.1395,2.299,9.67,1111122 
DISL,ioos:station:DISL:CATA:1,2016-01-03T02:00:00Z,30.3085,-88.1395,2.3,9.76,1111122 
DISL,ioos:station:DISL:CATA:1,2016-01-03T02:30:00Z,30.3085,-88.1395,2.29,9.85,1111122 
DISL,ioos:station:DISL:CATA:1,2016-01-03T03:00:00Z,30.3085,-88.1395,2.273,9.89,1111122 
DISL,ioos:station:DISL:CATA:1,2016-01-03T03:30:00Z,30.3085,-88.1395,2.27,9.8,1111122 
DISL,ioos:station:DISL:CATA:1,2016-01-03T04:00:00Z,30.3085,-88.1395,2.27,9.76,1111122 
DISL,ioos:station:DISL:CATA:1,2016-01-03T04:30:00Z,30.3085,-88.1395,2.252,9.77,1111122 
DISL,ioos:station:DISL:CATA:1,2016-01-03T05:00:00Z,30.3085,-88.1395,2.234,9.78,1111122 
DISL,ioos:station:DISL:CATA:1,2016-01-03T05:30:00Z,30.3085,-88.1395,2.221,9.77,1111122 
DISL,ioos:station:DISL:CATA:1,2016-01-03T06:00:00Z,30.3085,-88.1395,2.203,9.81,1111122 
DISL,ioos:station:DISL:CATA:1,2016-01-03T06:30:00Z,30.3085,-88.1395,2.174,9.8,1111122 
DISL,ioos:station:DISL:CATA:1,2016-01-03T07:00:00Z,30.3085,-88.1395,2.165,9.81,1111122 
DISL,ioos:station:DISL:CATA:1,2016-01-03T07:30:00Z,30.3085,-88.1395,2.149,9.82,1111122 
DISL,ioos:station:DISL:CATA:1,2016-01-03T08:00:00Z,30.3085,-88.1395,2.141,9.81,1111122 
DISL,ioos:station:DISL:CATA:1,2016-01-03T08:30:00Z,30.3085,-88.1395,2.125,9.81,1111122 
DISL,ioos:station:DISL:CATA:1,2016-01-03T09:00:00Z,30.3085,-88.1395,2.122,9.8,1111122 
DISL,ioos:station:DISL:CATA:1,2016-01-03T09:30:00Z,30.3085,-88.1395,2.132,9.8,1111122 
DISL,ioos:station:DISL:CATA:1,2016-01-03T10:00:00Z,30.3085,-88.1395,2.133,9.83,1111122 
DISL,ioos:station:DISL:CATA:1,2016-01-03T10:30:00Z,30.3085,-88.1395,2.121,9.82,1111122 
DISL,ioos:station:DISL:CATA:1,2016-01-03T11:00:00Z,30.3085,-88.1395,2.123,9.84,1111122 
DISL,ioos:station:DISL:CATA:1,2016-01-03T11:30:00Z,30.3085,-88.1395,2.101,9.89,1111122 
DISL,ioos:station:DISL:CATA:1,2016-01-03T12:00:00Z,30.3085,-88.1395,2.083,9.9,1111122 
DISL,ioos:station:DISL:CATA:1,2016-01-03T12:30:00Z,30.3085,-88.1395,2.079,9.9,1111122 
DISL,ioos:station:DISL:CATA:1,2016-01-03T13:00:00Z,30.3085,-88.1395,2.08,9.91,1111122 
DISL,ioos:station:DISL:CATA:1,2016-01-03T13:30:00Z,30.3085,-88.1395,2.078,9.92,1111122 
DISL,ioos:station:DISL:CATA:1,2016-01-03T14:00:00Z,30.3085,-88.1395,2.105,9.91,1111122 
DISL,ioos:station:DISL:CATA:1,2016-01-03T14:30:00Z,30.3085,-88.1395,2.145,9.93,1111122 
DISL,ioos:station:DISL:CATA:1,2016-01-03T15:00:00Z,30.3085,-88.1395,2.158,9.9,1111122 
DISL,ioos:station:DISL:CATA:1,2016-01-03T15:30:00Z,30.3085,-88.1395,2.161,9.93,1111122 
DISL,ioos:station:DISL:CATA:1,2016-01-03T16:00:00Z,30.3085,-88.1395,2.182,9.95,1111122 
DISL,ioos:station:DISL:CATA:1,2016-01-03T16:30:00Z,30.3085,-88.1395,2.215,9.93,1111122 
DISL,ioos:station:DISL:CATA:1,2016-01-03T17:00:00Z,30.3085,-88.1395,2.22,9.92,1111122 
DISL,ioos:station:DISL:CATA:1,2016-01-03T17:30:00Z,30.3085,-88.1395,2.214,9.92,1111122 
DISL,ioos:station:DISL:CATA:1,2016-01-03T18:00:00Z,30.3085,-88.1395,2.234,9.89,1111122 
DISL,ioos:station:DISL:CATA:1,2016-01-03T18:30:00Z,30.3085,-88.1395,2.239,9.8,1111122 
DISL,ioos:station:DISL:CATA:1,2016-01-03T19:00:00Z,30.3085,-88.1395,2.261,9.71,1111122 
DISL,ioos:station:DISL:CATA:1,2016-01-03T19:30:00Z,30.3085,-88.1395,2.297,9.78,1111122 
DISL,ioos:station:DISL:CATA:1,2016-01-03T20:00:00Z,30.3085,-88.1395,2.316,9.67,1111122 
DISL,ioos:station:DISL:CATA:1,2016-01-03T20:30:00Z,30.3085,-88.1395,2.357,9.73,1111122 
DISL,ioos:station:DISL:CATA:1,2016-01-03T21:00:00Z,30.3085,-88.1395,2.367,9.74,1111122 
DISL,ioos:station:DISL:CATA:1,2016-01-03T21:30:00Z,30.3085,-88.1395,2.386,9.78,1111122 
DISL,ioos:station:DISL:CATA:1,2016-01-03T22:00:00Z,30.3085,-88.1395,2.404,9.8,1111122 
DISL,ioos:station:DISL:CATA:1,2016-01-03T22:30:00Z,30.3085,-88.1395,2.398,9.91,1111122 
DISL,ioos:station:DISL:CATA:1,2016-01-03T23:00:00Z,30.3085,-88.1395,2.383,9.96,1111122 
DISL,ioos:station:DISL:CATA:1,2016-01-03T23:30:00Z,30.3085,-88.1395,2.38,9.91,1111122 
DISL,ioos:station:DISL:CATA:1,2016-01-04T00:00:00Z,30.3085,-88.1395,2.388,9.94,1111122 
DISL,ioos:station:DISL:CATA:1,2016-01-04T00:30:00Z,30.3085,-88.1395,2.388,9.91,1111122 
DISL,ioos:station:DISL:CATA:1,2016-01-04T01:00:00Z,30.3085,-88.1395,2.378,9.9,1111122 
DISL,ioos:station:DISL:CATA:1,2016-01-04T01:30:00Z,30.3085,-88.1395,2.362,9.78,1111122 
DISL,ioos:station:DISL:CATA:1,2016-01-04T02:00:00Z,30.3085,-88.1395,2.35,9.77,1111122 
DISL,ioos:station:DISL:CATA:1,2016-01-04T02:30:00Z,30.3085,-88.1395,2.334,9.76,1111122 
DISL,ioos:station:DISL:CATA:1,2016-01-04T03:00:00Z,30.3085,-88.1395,2.308,9.77,1111122 
DISL,ioos:station:DISL:CATA:1,2016-01-04T03:30:00Z,30.3085,-88.1395,2.293,9.79,1111122 
DISL,ioos:station:DISL:CATA:1,2016-01-04T04:00:00Z,30.3085,-88.1395,2.275,9.77,1111122 
DISL,ioos:station:DISL:CATA:1,2016-01-04T04:30:00Z,30.3085,-88.1395,2.237,9.81,1111122 
DISL,ioos:station:DISL:CATA:1,2016-01-04T05:00:00Z,30.3085,-88.1395,2.203,9.78,1111122 
DISL,ioos:station:DISL:CATA:1,2016-01-04T05:30:00Z,30.3085,-88.1395,2.192,9.73,1111122 
DISL,ioos:station:DISL:CATA:1,2016-01-04T06:00:00Z,30.3085,-88.1395,2.17,9.74,1111122 
DISL,ioos:station:DISL:CATA:1,2016-01-04T06:30:00Z,30.3085,-88.1395,2.139,9.71,1111122 
DISL,ioos:station:DISL:CATA:1,2016-01-04T07:00:00Z,30.3085,-88.1395,2.11,9.7,1111122 
DISL,ioos:station:DISL:CATA:1,2016-01-04T07:30:00Z,30.3085,-88.1395,2.086,9.68,1111122 
DISL,ioos:station:DISL:CATA:1,2016-01-04T08:00:00Z,30.3085,-88.1395,2.066,9.71,1111122 
DISL,ioos:station:DISL:CATA:1,2016-01-04T08:30:00Z,30.3085,-88.1395,2.043,9.72,1111122 
DISL,ioos:station:DISL:CATA:1,2016-01-04T09:00:00Z,30.3085,-88.1395,2.035,9.73,1111122 
DISL,ioos:station:DISL:CATA:1,2016-01-04T09:30:00Z,30.3085,-88.1395,2.029,9.74,1111122 
DISL,ioos:station:DISL:CATA:1,2016-01-04T10:00:00Z,30.3085,-88.1395,2.015,9.78,1111122 
DISL,ioos:station:DISL:CATA:1,2016-01-04T10:30:00Z,30.3085,-88.1395,1.996,9.8,1111122 
DISL,ioos:station:DISL:CATA:1,2016-01-04T11:00:00Z,30.3085,-88.1395,1.962,9.77,1111122 
DISL,ioos:station:DISL:CATA:1,2016-01-04T11:30:00Z,30.3085,-88.1395,1.947,9.73,1111122 
DISL,ioos:station:DISL:CATA:1,2016-01-04T12:00:00Z,30.3085,-88.1395,1.963,9.72,1111122 
DISL,ioos:station:DISL:CATA:1,2016-01-04T12:30:00Z,30.3085,-88.1395,1.989,9.73,1111122 
DISL,ioos:station:DISL:CATA:1,2016-01-04T13:00:00Z,30.3085,-88.1395,2.01,9.72,1111122 
DISL,ioos:station:DISL:CATA:1,2016-01-04T13:30:00Z,30.3085,-88.1395,2.028,9.72,1111122 
DISL,ioos:station:DISL:CATA:1,2016-01-04T14:00:00Z,30.3085,-88.1395,2.036,9.73,1111122 
DISL,ioos:station:DISL:CATA:1,2016-01-04T14:30:00Z,30.3085,-88.1395,2.063,9.77,1111122 
DISL,ioos:station:DISL:CATA:1,2016-01-04T15:00:00Z,30.3085,-88.1395,2.083,9.8,1111122 
DISL,ioos:station:DISL:CATA:1,2016-01-04T15:30:00Z,30.3085,-88.1395,2.075,9.79,1111122 
DISL,ioos:station:DISL:CATA:1,2016-01-04T16:00:00Z,30.3085,-88.1395,2.074,9.81,1111122 
DISL,ioos:station:DISL:CATA:1,2016-01-04T16:30:00Z,30.3085,-88.1395,2.098,9.83,1111122 
DISL,ioos:station:DISL:CATA:1,2016-01-04T17:00:00Z,30.3085,-88.1395,2.124,9.85,1111122 
DISL,ioos:station:DISL:CATA:1,2016-01-04T17:30:00Z,30.3085,-88.1395,2.146,9.84,1111122 
DISL,ioos:station:DISL:CATA:1,2016-01-04T18:00:00Z,30.3085,-88.1395,2.168,9.8,1111122 
DISL,ioos:station:DISL:CATA:1,2016-01-04T18:30:00Z,30.3085,-88.1395,2.192,9.81,1111122 
DISL,ioos:station:DISL:CATA:1,2016-01-04T19:00:00Z,30.3085,-88.1395,2.21,10.1,1111122 
DISL,ioos:station:DISL:CATA:1,2016-01-04T19:30:00Z,30.3085,-88.1395,2.253,10.14,1111122 
DISL,ioos:station:DISL:CATA:1,2016-01-04T20:00:00Z,30.3085,-88.1395,2.273,10.25,1111122 
DISL,ioos:station:DISL:CATA:1,2016-01-04T20:30:00Z,30.3085,-88.1395,2.295,10.26,1111122 
DISL,ioos:station:DISL:CATA:1,2016-01-04T21:00:00Z,30.3085,-88.1395,2.314,10.23,1111122 
DISL,ioos:station:DISL:CATA:1,2016-01-04T21:30:00Z,30.3085,-88.1395,2.323,10.28,1111122 
DISL,ioos:station:DISL:CATA:1,2016-01-04T22:00:00Z,30.3085,-88.1395,2.322,10.29,1111122 
DISL,ioos:station:DISL:CATA:1,2016-01-04T22:30:00Z,30.3085,-88.1395,2.328,10.24,1111122 
DISL,ioos:station:DISL:CATA:1,2016-01-04T23:00:00Z,30.3085,-88.1395,2.324,10.33,1111122 
DISL,ioos:station:DISL:CATA:1,2016-01-04T23:30:00Z,30.3085,-88.1395,2.313,10.37,1111122 
DISL,ioos:station:DISL:CATA:1,2016-01-05T00:00:00Z,30.3085,-88.1395,2.297,10.23,1111122 
DISL,ioos:station:DISL:CATA:1,2016-01-05T00:30:00Z,30.3085,-88.1395,2.281,10.05,1111122 
DISL,ioos:station:DISL:CATA:1,2016-01-05T01:00:00Z,30.3085,-88.1395,2.276,10.02,1111122 
DISL,ioos:station:DISL:CATA:1,2016-01-05T01:30:00Z,30.3085,-88.1395,2.255,9.94,1111122 
DISL,ioos:station:DISL:CATA:1,2016-01-05T02:00:00Z,30.3085,-88.1395,2.245,9.96,1111122 
DISL,ioos:station:DISL:CATA:1,2016-01-05T02:30:00Z,30.3085,-88.1395,2.226,9.9,1111122 
DISL,ioos:station:DISL:CATA:1,2016-01-05T03:00:00Z,30.3085,-88.1395,2.201,9.9,1111122 
DISL,ioos:station:DISL:CATA:1,2016-01-05T03:30:00Z,30.3085,-88.1395,2.175,9.97,1111122 
DISL,ioos:station:DISL:CATA:1,2016-01-05T04:00:00Z,30.3085,-88.1395,2.165,10.05,1111122 
DISL,ioos:station:DISL:CATA:1,2016-01-05T04:30:00Z,30.3085,-88.1395,2.158,10.09,1111122 
DISL,ioos:station:DISL:CATA:1,2016-01-05T05:00:00Z,30.3085,-88.1395,2.143,10.12,1111122 
DISL,ioos:station:DISL:CATA:1,2016-01-05T05:30:00Z,30.3085,-88.1395,2.103,10.14,1111122 
DISL,ioos:station:DISL:CATA:1,2016-01-05T06:00:00Z,30.3085,-88.1395,2.073,10.15,1111122 
DISL,ioos:station:DISL:CATA:1,2016-01-05T06:30:00Z,30.3085,-88.1395,2.043,10.14,1111122 
DISL,ioos:station:DISL:CATA:1,2016-01-05T07:00:00Z,30.3085,-88.1395,2.016,10.19,1111122 
DISL,ioos:station:DISL:CATA:1,2016-01-05T07:30:00Z,30.3085,-88.1395,1.998,10.25,1111122 
DISL,ioos:station:DISL:CATA:1,2016-01-05T08:00:00Z,30.3085,-88.1395,1.98,10.34,1111122 
DISL,ioos:station:DISL:CATA:1,2016-01-05T08:30:00Z,30.3085,-88.1395,1.97,10.33,1111122 
DISL,ioos:station:DISL:CATA:1,2016-01-05T09:00:00Z,30.3085,-88.1395,1.967,10.35,1111122 
DISL,ioos:station:DISL:CATA:1,2016-01-05T09:30:00Z,30.3085,-88.1395,1.97,10.37,1111122 
DISL,ioos:station:DISL:CATA:1,2016-01-05T10:00:00Z,30.3085,-88.1395,1.976,10.36,1111122 
DISL,ioos:station:DISL:CATA:1,2016-01-05T10:30:00Z,30.3085,-88.1395,1.977,10.3,1111122 
DISL,ioos:station:DISL:CATA:1,2016-01-05T11:00:00Z,30.3085,-88.1395,1.979,10.3,1111122 
DISL,ioos:station:DISL:CATA:1,2016-01-05T11:30:00Z,30.3085,-88.1395,1.98,10.29,1111122 
DISL,ioos:station:DISL:CATA:1,2016-01-05T12:00:00Z,30.3085,-88.1395,1.977,10.36,1111122 
DISL,ioos:station:DISL:CATA:1,2016-01-05T12:30:00Z,30.3085,-88.1395,1.982,10.34,1111122 
DISL,ioos:station:DISL:CATA:1,2016-01-05T13:00:00Z,30.3085,-88.1395,1.964,10.38,1111122 
DISL,ioos:station:DISL:CATA:1,2016-01-05T13:30:00Z,30.3085,-88.1395,1.964,10.38,1111122 
DISL,ioos:station:DISL:CATA:1,2016-01-05T14:00:00Z,30.3085,-88.1395,1.973,10.38,1111122 
DISL,ioos:station:DISL:CATA:1,2016-01-05T14:30:00Z,30.3085,-88.1395,1.974,10.37,1111122 
DISL,ioos:station:DISL:CATA:1,2016-01-05T15:00:00Z,30.3085,-88.1395,1.993,10.39,1111122 
DISL,ioos:station:DISL:CATA:1,2016-01-05T15:30:00Z,30.3085,-88.1395,2.002,10.37,1111122 
DISL,ioos:station:DISL:CATA:1,2016-01-05T16:00:00Z,30.3085,-88.1395,2.027,10.37,1111122 
DISL,ioos:station:DISL:CATA:1,2016-01-05T16:30:00Z,30.3085,-88.1395,2.057,10.35,1111122 
DISL,ioos:station:DISL:CATA:1,2016-01-05T17:00:00Z,30.3085,-88.1395,2.09,10.4,1111122 
DISL,ioos:station:DISL:CATA:1,2016-01-05T17:30:00Z,30.3085,-88.1395,2.11,10.33,1111122 
DISL,ioos:station:DISL:CATA:1,2016-01-05T18:00:00Z,30.3085,-88.1395,2.139,10.34,1111122 
DISL,ioos:station:DISL:CATA:1,2016-01-05T18:30:00Z,30.3085,-88.1395,2.17,10.35,1111122 
DISL,ioos:station:DISL:CATA:1,2016-01-05T19:00:00Z,30.3085,-88.1395,2.206,10.34,1111122 
DISL,ioos:station:DISL:CATA:1,2016-01-05T19:30:00Z,30.3085,-88.1395,2.235,10.37,1111122 
DISL,ioos:station:DISL:CATA:1,2016-01-05T20:00:00Z,30.3085,-88.1395,2.253,10.34,1111122 
DISL,ioos:station:DISL:CATA:1,2016-01-05T20:30:00Z,30.3085,-88.1395,2.298,10.32,1111122 
DISL,ioos:station:DISL:CATA:1,2016-01-05T21:00:00Z,30.3085,-88.1395,2.335,10.34,1111122 
DISL,ioos:station:DISL:CATA:1,2016-01-05T21:30:00Z,30.3085,-88.1395,2.358,10.34,1111122 
DISL,ioos:station:DISL:CATA:1,2016-01-05T22:00:00Z,30.3085,-88.1395,2.376,10.33,1111122 
DISL,ioos:station:DISL:CATA:1,2016-01-05T22:30:00Z,30.3085,-88.1395,2.402,10.35,1111122 
DISL,ioos:station:DISL:CATA:1,2016-01-05T23:00:00Z,30.3085,-88.1395,2.42,10.34,1111122 
DISL,ioos:station:DISL:CATA:1,2016-01-05T23:30:00Z,30.3085,-88.1395,2.455,10.35,1111122 
DISL,ioos:station:DISL:CATA:1,2016-01-06T00:00:00Z,30.3085,-88.1395,2.468,10.37,1111122 
DISL,ioos:station:DISL:CATA:1,2016-01-06T00:30:00Z,30.3085,-88.1395,2.47,10.4,1111122 
DISL,ioos:station:DISL:CATA:1,2016-01-06T01:00:00Z,30.3085,-88.1395,2.468,10.4,1111122 
DISL,ioos:station:DISL:CATA:1,2016-01-06T01:30:00Z,30.3085,-88.1395,2.46,10.39,1111122 
DISL,ioos:station:DISL:CATA:1,2016-01-06T02:00:00Z,30.3085,-88.1395,2.445,10.39,1111122 
DISL,ioos:station:DISL:CATA:1,2016-01-06T02:30:00Z,30.3085,-88.1395,2.418,10.4,1111122 
DISL,ioos:station:DISL:CATA:1,2016-01-06T03:00:00Z,30.3085,-88.1395,2.384,10.4,1111122 
DISL,ioos:station:DISL:CATA:1,2016-01-06T03:30:00Z,30.3085,-88.1395,2.335,10.4,1111122 
DISL,ioos:station:DISL:CATA:1,2016-01-06T04:00:00Z,30.3085,-88.1395,2.27,10.4,1111122 
DISL,ioos:station:DISL:CATA:1,2016-01-06T04:30:00Z,30.3085,-88.1395,2.268,10.41,1111122 
DISL,ioos:station:DISL:CATA:1,2016-01-06T05:00:00Z,30.3085,-88.1395,2.234,10.41,1111122 
DISL,ioos:station:DISL:CATA:1,2016-01-06T05:30:00Z,30.3085,-88.1395,2.214,10.38,1111122 
DISL,ioos:station:DISL:CATA:1,2016-01-06T06:00:00Z,30.3085,-88.1395,2.194,10.4,1111122 
DISL,ioos:station:DISL:CATA:1,2016-01-06T06:30:00Z,30.3085,-88.1395,2.162,10.39,1111122 
DISL,ioos:station:DISL:CATA:1,2016-01-06T07:00:00Z,30.3085,-88.1395,2.134,10.42,1111122 
DISL,ioos:station:DISL:CATA:1,2016-01-06T07:30:00Z,30.3085,-88.1395,2.125,10.43,1111122 
DISL,ioos:station:DISL:CATA:1,2016-01-06T08:00:00Z,30.3085,-88.1395,2.1,10.41,1111122 
DISL,ioos:station:DISL:CATA:1,2016-01-06T08:30:00Z,30.3085,-88.1395,2.086,10.4,1111122 
DISL,ioos:station:DISL:CATA:1,2016-01-06T09:00:00Z,30.3085,-88.1395,2.074,10.41,1111122 
DISL,ioos:station:DISL:CATA:1,2016-01-06T09:30:00Z,30.3085,-88.1395,2.066,10.51,1111122 
DISL,ioos:station:DISL:CATA:1,2016-01-06T10:00:00Z,30.3085,-88.1395,2.063,10.52,1111122 
DISL,ioos:station:DISL:CATA:1,2016-01-06T10:30:00Z,30.3085,-88.1395,2.044,10.51,1111122 
DISL,ioos:station:DISL:CATA:1,2016-01-06T11:00:00Z,30.3085,-88.1395,2.034,10.56,1111122 
DISL,ioos:station:DISL:CATA:1,2016-01-06T11:30:00Z,30.3085,-88.1395,2.016,10.56,1111122 
DISL,ioos:station:DISL:CATA:1,2016-01-06T12:00:00Z,30.3085,-88.1395,1.999,10.59,1111122 
DISL,ioos:station:DISL:CATA:1,2016-01-06T12:30:00Z,30.3085,-88.1395,1.985,10.55,1111122 
DISL,ioos:station:DISL:CATA:1,2016-01-06T13:00:00Z,30.3085,-88.1395,1.969,10.5,1111122 
DISL,ioos:station:DISL:CATA:1,2016-01-06T13:30:00Z,30.3085,-88.1395,1.979,10.47,1111122 
DISL,ioos:station:DISL:CATA:1,2016-01-06T14:00:00Z,30.3085,-88.1395,1.981,10.44,1111122 
DISL,ioos:station:DISL:CATA:1,2016-01-06T14:30:00Z,30.3085,-88.1395,1.984,10.41,1111122 
DISL,ioos:station:DISL:CATA:1,2016-01-06T15:00:00Z,30.3085,-88.1395,2.004,10.41,1111122 